Location: Detroit
(42.3310°N, 83.0460°W)
Time: 15:55:25
(UTC-05:00)

X-37B - Pass Details

Date: 05 December 2021
Orbit: 334 x 337 km, 45.0° (Epoch: 11 January)

Event Time Altitude Azimuth Distance (km) Brightness Sun altitude
Rises 19:12:07 0° 232° (SW) 2,093 5.3 -23.7°
Reaches altitude 10° 19:14:09 10° 225° (SW) 1,260 3.9 -24.1°
Enters shadow 19:14:52 16° 219° (SW) 989 3.2 -24.2°
